Terminal Aerodrome Forecast
Issued by NWS

Home | Current Version | Previous Version | Graphics & Text | Print | Product List | Glossary On
Versions: 1 2 3 4 5 6 7 8 9 10 11 12 13 14 15 16 17 18 19 20 21 22 23 24 25 26 27 28 29 30 31 32 33 34 35 36
000
FTUS43 KLOT 210200 AAA
TAFORD
TAF AMD
KORD 210237Z 2103/2206 23006KT P6SM FEW050 SCT100
     FM210500 29011G19KT P6SM VCSH SCT030 BKN060 OVC100
      TEMPO 2105/2107 29015G25KT -SHRA
     FM210700 29010KT P6SM SCT030 BKN050
     FM211300 31014G21KT P6SM BKN018
     FM211700 34013G22KT P6SM VCSH BKN025
     FM212100 36013KT P6SM SCT035
     FM220200 01010KT P6SM SKC=

USA.gov is the U.S. government's official web portal to all federal, state and local government web resources and services.